Regional Weather Roundup
Issued by NWS

Home | Current Version | Previous Version | Text Only | Print | Product List | Glossary On
Versions: 1 2 3 4 5 6 7 8 9 10 11 12 13 14 15 16 17 18 19 20 21 22 23 24 25 26 27 28 29 30 31 32 33 34 35 36 37 38 39 40 41 42 43 44 45 46 47 48 49 50
000
ASUS42 KKEY 280910
RWRKEY

FLORIDA REGIONAL WEATHER ROUNDUP FOR THE FLORIDA KEYS
NATIONAL WEATHER SERVICE KEY WEST FLORIDA
500 AM EDT WED SEP 28 2016

...SOUTH FLORIDA AND THE KEYS...

CITY           SKY/WX    TMP DP  RH WIND       PRES   REMARKS
FORT MYERS     CLEAR     74  73  97 CALM      29.95S
SW REGIONAL AP CLEAR     74  72  93 CALM      29.96S
NAPLES         PTCLDY    75  74  96 CALM      29.96S
MIAMI          PTCLDY    73  72  96 CALM      29.97S
WEST KENDALL   CLEAR     69  69 100 CALM      29.97S
HOMESTEAD      CLEAR     72  72  99 E2        29.97S
MARATHON       CLEAR     75  74  96 CALM      29.96F
BOCA CHICA NAS CLEAR     78  73  84 W3        29.97S
KEY WEST INTL  PTCLDY    79  75  87 CALM      29.97S

...INTERNATIONAL WEATHER...

CITY           SKY/WX    TMP DP  RH WIND       PRES   REMARKS
NASSAU BAHAMAS NOT AVBL
CANCUN MEXICO  PTCLDY    79  77  94 CALM      29.94F
COZUMEL MEXICO PTCLDY    79  75  89 CALM      29.94F

ADJACENT COASTAL WATERS...

STATION/POSITION TIME  SKY/WX   TEMP    WIND        PRES    WAVE
                                AIR SEA DIR/SP/G            HT/PER
                 (UTC)          (F)     (DEG/KT/KT) (MB)    (FT/S)
PULASKI SHOAL LI 0900            83     160/  1/  2 1015.0R
SAND KEY         0850            82     230/  6/  7 1015.4R
LONG KEY         0800            82 83  250/  6/  7 1015.2R
FOWEY ROCKS      0800            80 84  240/  9/ 10 1015.5F

$$



USA.gov is the U.S. government's official web portal to all federal, state and local government web resources and services.